Find Starlink 37264

NORAD ID: 68729 Int'l Des: 2026-082 Owner: SPXS Country: US Constellation: starlink operational
LEOCIRCULARRETROGRADE

現在のビュー

3D地球を読み込み中...

Starlink 37264について

説明を読み込み中...

次回通過

Passes for default location (London). Set your location on the main map for personalized predictions.

高度履歴

Loading altitude history...

軌道要素

1 68729U 26082B 26150.83335647 -.01876926 00000-0 -47425-1 0 9997
2 68729 97.2840 14.5285 0001748 89.1855 333.9626 15.43017764 6023
Epoch: May 30, 2026 • Age: 10 hours

現在のステータス

高度 451.4 km
速度 7.65 km/s
衛星直下点 60.73°N, 124.46°W
打ち上げ日 Apr 15, 2026
運用期間 0.1 years
タイプ internet

技術仕様

分類 Payload
質量 575.00 kg
乾燥質量 530.00 kg
総質量 575.00 kg
長さ 0.30 m
直径 4.10 m
スパン 29.00 m
形状 Box + pan
製造者 SPXS
バスタイプ Starlink V2MO
フェーズステータス In Orbit
所有者/国 SPXS/US

Most Searched